{"data":{"norad_id":65380,"epoch":"2026-05-25T03:08:04.670304Z","epoch_age_seconds":74355,"freshness":"FRESH","line1":"1 65380U 25191B   26145.13060961  .00005545  00000+0  38797-3 0  9999","line2":"2 65380  97.4532  16.5270 0001958  77.3556 282.7890 15.05662192 41784","mean_motion":15.05662192,"eccentricity":0.0001958,"inclination_deg":97.4532,"raan_deg":16.527,"arg_perigee_deg":77.3556,"mean_anomaly_deg":282.789,"bstar":0.00038797,"rev_number":4178,"period_min":95.638982479013,"perigee_km":548.11733035407,"apogee_km":550.83018272633,"semimajor_km":6927.6107565402,"source":"CELESTRAK","updated_at":"2026-05-25T13:38:20.771641Z"}}